THOR ABLESTAR DEB, 402

Orbit data source: Space-Track

THOR ABLESTAR DEB, 402 is space debris in LEO originally from a launch on Thu, 29 Jun 1961 UTC launched from the Air Force Eastern Test Range (AFETR). Debris objects in space refer to the collection of defunct objects orbiting the Earth. Examples of debris include non-operational satellites, rocket bodies, and fragments generated from explosions, collisions, or faulty payload assembly.

Loading next visibility...
Identifier
402, 1961-015EB
Orbit
LEO
Country
Flag of USUS
Related business
Manufacturer
Unknown
Mission
Spacecraft
Bus & Motor
Unknown
Mass
Unknown
Launch date (UTC)
1961-06-29 (65 years ago)
Launch vehicle
Unknown
Launch site
Air Force Eastern Test Range (AFETR)
Object type
Payload
Rocket body
Debris
Shape & HBR
Unknown shape, 0.1 m
Radar Cross Section
Small (<0.1 m²)

Expand to show TLE details & history
Last TLE update: 23 hours ago

TLE from 23 hours ago
0 THOR ABLESTAR DEB
1 00402U 61015EB  26140.49701161  .00004709  00000-0  74344-3 0  9996
2 00402  66.6512 309.2122 0028921 321.9319  37.9756 14.73003011337148
Epoch: 2026-05-20T11:55Z
TLE epoch observation values (Epoch: 2026-05-20T11:55:41.803Z)
Latitude
-0.00004°
Longitude
-107.86772°
Altitude
637.637 km
Speed
7.548 km/s
True Right ascension
20h 36m 50s
True Declination
0° 00' 00"
Sunlit
Object was in daylight at epoch
Visualization orbit readout
Latitude
Unknown
Longitude
Unknown
Altitude
Unknown
Speed
Unknown
Apparent Right ascension
Unknown
Apparent Declination
Unknown
Sunlit
N/A
Visualization observer readout
Local Sidereal Time
19:30:37
Azimuth
Unknown
Elevation
Unknown
Doppler factor
Unknown
Orbital elements
Apogee altitude
670.171 km
Perigee altitude
629.52 km
Semi-major axis
7,027.983 km
Eccentricity
0.00289
Inclination
66.6512°
RAAN
309.2122°
Arg. of periapsis
321.9319°
True anomaly
38.18011°
Mean anomaly
37.9756°
Eccentric anomaly
38.0778°
Mean motion
3.68381 °/min
Orbital period
97.72 mins
BSTAR
0.00074344
Loading maneuver chart data...
Computing Atmospheric mass density...

Documentation

Showing up to 5 results
|